144  
NZUS93 KARX 182310  
HRRWXR  
 
CURRENT HOURLY OBSERVATIONS ACROSS  
MUCH OF THE UPPER MISSISSIPPI VALLEY  
NATIONAL WEATHER SERVICE LA CROSSE WI  
500 PM CST SUN FEB 18 2018  
 
   
..SOUTHEAST MINNESOTA
 
 
 
CITY SKY/WX TMP DP RH WIND PRES REMARKS  
ROCHESTER FAIR 37 29 72 S20G32 29.66F WCI 27  
ROCHESTER/MAYO FAIR 39 28 64 S16G29 29.67S WCI 31  
WINONA FAIR 41 27 56 S8 29.70F  
AUSTIN FAIR 39 28 65 S12G18 29.65S WCI 32  
ALBERT LEA FAIR 41 28 60 S13 29.63S  
DODGE CENTER FAIR 37 28 70 S21 29.64S WCI 27  
PRESTON FAIR 37 28 72 S15G24 29.70R WCI 27  
OWATONNA FAIR 39 32 75 S16 29.62S WCI 30  
FARIBAULT FAIR 39 30 70 S7 29.63S WCI 34  

 
   
..ELSEWHERE IN MINNESOTA
 
 
 
CITY SKY/WX TMP DP RH WIND PRES REMARKS  
MINNEAPOLIS CLOUDY 44 30 57 S10 29.62S  
INTNL FALLS CLOUDY 11 6 81 NE10G20 29.85R WCI -3  
DULUTH LGT SNOW 23 19 85 E10 29.67S VSB 3/4 WCI 12  
RED WING FAIR 43 25 49 S10G22 29.66S  
REDWOOD FALLS CLOUDY 42 31 64 SW13 29.57R  
MANKATO FAIR 40 31 70 S15 29.61R WCI 32  
WORTHINGTON CLOUDY 40 32 73 S9 29.57R WCI 34  
FAIRMONT PTCLDY 38 31 76 S9 29.61R WCI 31  

 
   
..SOUTHWEST WISCONSIN
 
 
 
CITY SKY/WX TMP DP RH WIND PRES REMARKS  
LA CROSSE FAIR 41 26 55 S15 29.74R  
PRAIRIE DU CHI FAIR 40 26 59 SE10G23 29.77R WCI 33  
BOSCOBEL FAIR 40 27 59 S7G22 29.80F  
LONE ROCK FAIR 37 28 70 SE14G23 29.82F WCI 28  
PLATTEVILLE FAIR 36 30 79 SE21G26 29.81F WCI 25  
FORT MC COY FAIR 38 26 60 S5 29.77R WCI 35  
CAMP DOUGLAS MOCLDY 38 24 57 S15 29.74F WCI 29  
MAUSTON-NEW LI CLOUDY 38 26 61 S15 29.75F WCI 29  
VIROQUA MOCLDY 37 27 67 S13 29.75R WCI 29  
WIS DELLS CLOUDY 35 24 65 S23G30 29.80F WCI 23  

 
   
..ELSEWHERE IN WISCONSIN
 
 
 
CITY SKY/WX TMP DP RH WIND PRES REMARKS  
MILWAUKEE MOCLDY 33 27 78 S21G28 29.97F WCI 21  
MADISON MOCLDY 33 25 72 S17G28 29.87F WCI 22  
GREEN BAY CLOUDY 34 25 69 S20 29.88F WCI 23  
EAU CLAIRE FAIR 38 26 62 S12 29.69S WCI 30  
BLACK RVR FLS FAIR 42 21 44 S8 29.75S  
MEDFORD FAIR 33 23 66 S16 29.72F WCI 23  
WAUSAU FAIR 33 23 66 S16G25 29.77R WCI 23  
WIS RAPIDS FAIR 36 21 54 S12G17 29.78F WCI 28  
MARSHFIELD FAIR 34 24 67 S14 29.74R WCI 25  
RICE LAKE MOCLDY 40 26 58 S12G18 29.67S WCI 33  

 
   
..NORTHEAST IOWA
 
 
 
CITY SKY/WX TMP DP RH WIND PRES REMARKS  
WATERLOO FAIR 40 30 67 SE16G29 29.68F WCI 31  
DUBUQUE FAIR 36 29 75 S25G31 29.79F WCI 24  
DECORAH MOCLDY 39 28 65 S14G25 29.71R WCI 31  
MASON CITY CLOUDY 40 31 70 SE13 29.65F WCI 32  
CHARLES CITY FAIR 39 32 75 S18 29.69S WCI 30  
OELWEIN FAIR 37 36 93 SE20 29.70F WCI 27  

 
   
..ELSEWHERE IN IOWA
 
 
 
CITY SKY/WX TMP DP RH WIND PRES REMARKS  
DES MOINES CLOUDY 51 28 41 S13G23 29.66R  
IOWA CITY FAIR 45 29 53 SE18 29.79F  
FORT DODGE CLOUDY 46 29 51 S14 29.63F  
MARSHALLTOWN CLOUDY 45 30 55 S16 29.66F  
CEDAR RAPIDS FAIR 44 30 57 S17G29 29.74F  

 
   
..NORTHERN ILLINOIS
 
 
 
CITY SKY/WX TMP DP RH WIND PRES REMARKS  
CHICAGO-OHARE CLOUDY 37 27 67 S15 30.02F WCI 28  
CHICAGO-MIDWAY CLOUDY 38 29 70 SE18G24 30.04F WCI 28  
MOLINE FAIR 44 31 60 SE17G24 29.85F  
ROCKFORD CLOUDY 35 29 78 S17G26 29.95F WCI 25  
PEORIA FAIR 46 33 60 S22G31 29.95F  

 
 
NOTE: "FAIR" INDICATES FEW OR NO CLOUDS BELOW 12,000 FEET WITH NO  
SIGNIFICANT WEATHER AND/OR OBSTRUCTIONS TO VISIBILITY. WIND  
SPEEDS ARE IN MILES-PER-HOUR.  
 
 
CLICK HERE TO GO TO PREVIOUS BULLETINS.

The Nexlab WI Page
The Nexlab IA Page
The Nexlab MN Page Main Text Page